Location: Lalanga
(4.5882°N, 32.9072°E)
Time: 18:01:08
(UTC+00:00)

CZ-4C R/B - Pass Details

Date: 24 January 2020
Orbit: 644 x 1358 km, 63.4° (Epoch: 23 February)

Event Time Altitude Azimuth Distance (km) Brightness Sun altitude
Rises 17:23:30 0° 321° (NW) 4,288 6.1 -21.1°
Reaches altitude 10° 17:26:31 10° 314° (NW) 3,364 5.6 -21.8°
Maximum altitude 17:34:08 39° 248° (WSW) 1,917 4.5 -23.6°
Drops below altitude 10° 17:41:43 10° 182° (S) 3,331 5.5 -25.4°
Sets 17:44:44 0° 175° (S) 4,241 6.0 -26.1°
